Other Public Products
Issued by NWS Charleston, SC

Current Version | Previous Version | Graphics & Text | Print | Product List | Glossary On
Versions: 1 2 3 4 5 6 7 8 9 10 11 12 13 14 15 16 17 18 19 20 21 22 23 24 25 26 27 28 29 30 31 32 33 34 35 36 37 38 39 40 41 42 43 44 45 46 47 48 49 50
347 FPUS82 KCHS 240127 OPUCHS TEST...KCHS/KSAV Gateway Observations...TEST National Weather Service Charleston SC 900 PM EDT SUN JUL 23 2017 NOTE: "fair" indicates few or no clouds below 12,000 feet with no significant weather and/or obstructions to visibility. SCZ050-WAZ558-NCZ071-TXZ119-213-PAZ071-DCZ001-FLZ074-172-MI076- NYZ176-178-MAZ016-IL014-TNZ027-NJZ106-GAZ044-MD014-240200- ...Gateway Observations for Charleston International... CITY SKY/WX TMP DP RH WIND PRES REMARKS Chas Airport CLOUDY 80 74 81 SW5 29.93R Seattle MOSUNNY 76 58 53 N12G20 30.03F Charlotte CLOUDY 74 68 81 S7 29.90F Dallas DFW MOCLDY 94 71 47 S8 29.81R HX 101 Dallas Love MOCLDY 95 68 41 S6 29.82R HX 99 Philladelphia RAIN 73 69 87 NE8G18 29.83R Wash National MOCLDY 78 73 84 CALM 29.78R Baltimore CLOUDY 77 75 93 E8 29.78R Miami CLOUDY 86 74 67 SE7 30.02R HX 94 Detroit MOCLDY 73 69 87 W6 29.76S Newark CLOUDY 75 68 78 SE9 29.85R Laguardia MOCLDY 77 68 73 SE12 29.85R J F K MOCLDY 74 71 91 E12 29.85S Boston Logan MOCLDY 65 56 72 SE7 29.93R Ft. Lauderdale CLOUDY 85 75 72 SE8 30.02R HX 93 Chicago O`Hare MOCLDY 73 63 70 W6 29.82R Chicago Midway CLOUDY 75 64 68 NW9 29.82R Houston Bush MOCLDY 88 73 61 S7 29.89R HX 95 Houston Hobby MOCLDY 88 73 61 S13G18 29.90R HX 95 Nashville CLOUDY 80 67 64 W8 29.86R Atlanta MOCLDY 83 72 69 SW8 29.90S $$ GAZ044-118-TXZ119-213-NCZ071-DCZ001-MDZ014-506-PAZ021-071-NJZ106- NYZ176-178-MAZ106-OHZ011-021-055-MIZ076-KYZ091-ILZ014-INZ047- MNZ060-ONZ431-240200- ...Gateway Observations for Savannah International... CITY SKY/WX TMP DP RH WIND PRES REMARKS Savannah Arpt CLOUDY 79 74 84 S5 29.93R Atlanta MOCLDY 83 72 69 SW8 29.90S Charlotte CLOUDY 74 68 81 S7 29.90F Dallas DFW MOCLDY 94 71 47 S8 29.81R HX 101 Houston Bush MOCLDY 88 73 61 S7 29.89R HX 95 Wash National MOCLDY 78 73 84 CALM 29.78R Wash Dulles MOCLDY 76 71 85 E6 29.78R Baltimore CLOUDY 77 75 93 E8 29.78R Philadelphia RAIN 73 69 87 NE8G18 29.83R Newark CLOUDY 75 68 78 SE9 29.85R Laguardia MOCLDY 77 68 73 SE12 29.85R J F K MOCLDY 74 71 91 E12 29.85S Boston MOCLDY 65 56 72 SE7 29.93R Pittsburg LGT RAIN 69 67 93 SW12 29.77F FOG Akron CLOUDY 74 67 78 SW9 29.79R Cleveland CLOUDY 78 67 68 CALM 29.76R Cincinnati PTCLDY 75 70 84 W10 29.81S Columbus CLOUDY 70 69 99 NE6 29.79F Detroit MOCLDY 73 69 87 W6 29.76S Chicago O`Hare MOCLDY 73 63 70 W6 29.82R Minneapolis PTCLDY 73 55 53 NE13G22 29.97S Indianapolis PTCLDY 77 73 87 SW5 29.81F Toronto Canada LGT RAIN 72 59 64 E9G21 29.76S $$

USA.gov is the U.S. government's official web portal to all federal, state and local government web resources and services.